Location: Durham
(54.7770°N, 1.5720°W)
Time: 00:39:23
(UTC+01:00)

ISS - Visible Passes

Search period start: 30 July 2016 00:00
Search period end: 09 August 2016 00:00
Orbit: 401 x 404 km, 51.6° (Epoch: 29 July)

Date Brightness Start Highest point End Pass type
(mag) Time Alt. Az. Time Alt. Az. Time Alt. Az.
30 Jul -3.2 00:04:43 10° WSW 00:07:53 48° S 00:09:02 32° SE visible
30 Jul -1.0 01:41:02 10° W 01:41:37 14° W 01:41:37 14° W visible
30 Jul -3.1 23:11:53 10° WSW 23:15:02 46° S 23:17:40 14° ESE visible
31 Jul -2.3 00:48:05 10° W 00:50:16 31° SW 00:50:16 31° SW visible
31 Jul -2.8 22:19:06 10° WSW 22:22:11 40° SSE 22:25:16 10° E visible
31 Jul -3.1 23:55:11 10° W 23:58:20 46° S 23:58:55 40° SSE visible
01 Aug -3.1 23:02:18 10° WSW 23:05:28 48° S 23:07:38 18° ESE visible
02 Aug -1.7 00:38:39 10° W 00:40:13 22° WSW 00:40:13 22° WSW visible
02 Aug -3.0 22:09:26 10° WSW 22:12:36 47° S 22:15:45 10° E visible
02 Aug -2.8 23:45:40 10° W 23:48:45 38° SSW 23:48:56 37° S visible
03 Aug -3.0 22:52:46 10° W 22:55:53 44° S 22:57:41 21° SE visible
04 Aug -1.1 00:29:19 10° W 00:30:16 15° WSW 00:30:16 15° WSW visible
04 Aug -3.0 21:59:51 10° WSW 22:03:01 48° S 22:06:11 10° ESE visible
04 Aug -2.2 23:36:14 10° W 23:39:01 28° SSW 23:39:01 28° SSW visible
05 Aug -2.6 22:43:14 10° W 22:46:16 36° SSW 22:47:47 22° SE visible
06 Aug -2.8 21:50:18 10° W 21:53:26 43° S 21:56:33 10° ESE visible
06 Aug -1.6 23:26:57 10° WSW 23:29:10 19° SW 23:29:10 19° SW visible
07 Aug -2.0 22:33:49 10° W 22:36:36 26° SSW 22:37:59 19° SSE visible
08 Aug -2.3 21:40:47 10° W 21:43:47 34° SSW 21:46:46 10° SE visible
08 Aug -0.9 23:18:11 10° WSW 23:19:25 12° SW 23:19:25 12° SW visible
